Theta_e
290 289 290 290 288 288 288 288 288 289 290 291 292 294 295 295 296 296 298 301 302 304 306 308 310 314 318 319 320 318 317 316 311 314 318 320 319 315 314 314 313 314 315
287 287 287 286 286 285 285 285 286 286 287 287 289 291 292 292 293 293 295 294 294 295 297 299 300 302 305 311 317 316 316 317 314 310 314 316 317 319 318 315 310 310 312
284 284 284 283 283 283 283 283 284 284 284 285 287 287 288 288 289 291 290 291 292 292 294 294 295 297 299 302 305 308 313 315 316 315 313 314 316 317 314 316 311 311 304
282 282 281 280 280 281 281 281 281 282 282 283 284 284 285 285 287 287 288 288 289 289 291 292 292 294 295 296 297 299 301 304 306 309 311 312 313 308 296 304 305 295 302
280 279 278 279 279 279 279 279 280 280 280 281 281 282 283 283 284 283 285 285 285 286 288 289 291 290 288 292 294 293 294 296 297 299 303 307 308 299 292 301 300 308 305
278 277 277 277 277 278 278 278 278 278 279 279 279 279 279 280 282 283 283 283 284 285 286 288 289 288 290 290 291 292 293 291 291 293 296 299 302 305 294 298 299 300 298
277 277 276 276 276 276 277 277 276 277 277 278 278 278 278 279 281 282 283 283 283 283 284 285 285 287 287 288 290 290 291 291 293 293 292 294 297 302 304 297 298 299 300
275 275 274 274 274 275 275 275 276 277 277 277 277 278 278 278 281 282 282 282 281 282 282 283 283 284 285 286 287 287 288 290 290 291 292 292 294 295 295 296 300 298 294
274 274 273 273 273 273 273 273 274 275 276 276 276 277 277 278 280 281 281 280 279 280 281 281 281 282 283 283 283 282 283 285 290 291 291 291 291 292 293 292 291 291 294
272 272 272 272 272 273 273 273 274 275 274 275 276 276 277 276 278 279 280 279 278 278 279 279 279 280 281 282 281 281 279 282 285 285 287 289 290 290 291 292 292 291 293
270 270 271 271 271 272 272 273 273 273 273 274 274 275 275 275 275 278 279 278 277 276 276 276 277 278 279 280 281 282 282 284 284 285 286 287 288 288 289 291 293 294 293
268 268 269 269 270 271 271 272 272 272 272 273 273 273 274 274 275 276 277 278 278 275 274 276 275 276 277 278 278 278 280 280 282 285 285 286 286 287 288 290 292 293 296
265 265 267 268 269 269 270 270 271 271 271 272 271 271 271 273 273 276 276 276 276 274 274 275 274 274 274 274 274 275 274 275 275 274 276 284 288 289 289 290 291 291 292
264 265 267 267 267 268 269 269 270 269 270 270 269 269 269 270 271 274 274 274 274 273 273 271 271 272 272 272 271 272 272 272 272 272 273 274 277 284 288 289 289 290 287
264 265 265 266 266 266 267 267 268 269 270 268 268 268 268 267 270 273 272 271 270 271 268 267 267 267 267 267 268 268 269 269 269 270 270 272 273 274 282 288 288 288 286
263 264 264 265 265 265 265 265 267 268 268 269 269 269 269 270 272 271 271 271 269 269 264 263 263 263 263 264 264 265 266 266 267 268 269 270 270 271 272 282 287 286 285
260 262 263 262 263 262 263 262 262 264 266 266 267 267 268 268 270 269 269 268 266 264 260 260 260 260 261 262 263 263 263 264 265 266 267 268 269 269 270 272 283 286 285
259 258 261 261 261 261 261 261 260 259 259 260 263 264 265 266 267 267 266 263 259 259 258 257 257 258 259 259 260 261 261 262 263 264 265 266 267 267 268 269 272 281 285
260 260 259 259 259 258 259 259 259 258 258 258 259 260 261 263 265 264 262 257 256 256 256 256 257 257 257 258 258 259 259 259 260 261 262 263 264 266 266 268 270 273 280
257 256 255 257 257 257 257 257 257 257 257 257 257 257 257 261 257 256 256 256 256 255 255 255 256 256 256 257 257 257 257 257 258 259 260 262 263 265 266 266 268 271 273
257 256 253 256 256 256 255 255 255 255 255 255 255 256 261 258 255 255 255 255 255 254 254 255 255 255 255 255 256 256 256 256 257 258 259 259 261 263 266 266 267 269 273
255 255 255 255 255 255 255 255 254 254 254 253 254 255 258 254 254 254 254 254 254 254 255 254 254 254 254 254 254 255 254 255 256 257 257 258 260 264 265 265 266 267 271
255 254 255 254 254 252 254 254 253 253 253 253 253 253 253 253 253 253 253 254 254 254 254 253 253 252 253 254 255 254 254 254 255 256 256 258 260 264 264 264 265 266 268
254 254 253 253 253 253 253 253 253 252 251 252 253 253 253 253 253 252 252 253 253 253 253 252 252 252 252 252 253 254 254 255 255 256 257 259 263 264 264 264 264 265 266
253 253 253 253 252 252 252 252 252 252 252 252 252 252 252 252 252 252 252 252 251 251 251 252 252 252 252 252 251 252 253 254 255 257 261 263 263 264 263 263 263 264 265
253 252 252 252 251 251 251 251 251 251 251 252 252 252 251 251 251 251 251 251 250 250 250 251 251 251 251 252 252 254 255 258 259 262 263 263 264 264 264 263 263 263 264
Wind_Speed
12 12 12 12 12 11 11 11 13 12 13 13 13 12 12 12 13 12 12 12 13 13 13 14 15 14 10 9 9 10 10 11 16 14 12 13 15 12 12 12 13 14 14
11 10 11 12 11 11 11 12 12 12 12 12 12 12 13 14 15 14 14 15 16 15 14 14 15 11 14 14 11 13 13 13 14 20 18 11 15 15 14 14 11 11 13
10 10 11 12 12 12 12 12 12 12 12 13 12 13 14 14 14 14 15 15 15 16 16 17 16 16 14 12 13 14 14 13 15 16 16 13 11 11 12 14 10 11 9
8 9 10 11 11 12 12 12 12 12 12 13 13 13 13 14 14 16 17 17 17 16 16 15 17 17 16 17 15 16 14 15 15 16 15 14 12 4 3 7 10 6 12
7 9 10 10 10 10 11 11 11 11 11 11 11 12 13 12 12 18 18 18 18 18 17 16 15 16 17 17 12 16 18 14 13 14 16 15 14 6 5 6 12 13 10
9 8 9 9 9 10 10 10 10 9 10 10 11 12 12 9 20 22 20 17 17 18 17 17 17 17 19 22 22 20 17 16 18 14 15 16 20 17 4 8 9 8 11
8 8 9 9 9 10 8 9 9 9 9 9 10 11 11 11 21 23 24 13 16 16 17 16 16 13 18 17 22 26 24 22 19 16 20 17 20 16 17 9 13 10 12
8 8 9 8 9 8 9 9 9 9 10 10 11 12 11 10 23 26 29 18 17 19 18 18 18 19 20 22 23 22 20 18 19 15 17 20 19 18 18 18 18 15 8
8 8 8 7 8 8 8 9 9 9 9 10 10 13 14 14 25 27 25 17 16 17 17 18 19 19 26 32 24 25 23 19 18 23 27 32 33 33 25 14 14 10 14
9 7 6 6 6 8 9 8 7 7 8 8 9 11 13 14 21 25 23 12 15 14 16 18 25 26 35 35 22 21 24 22 22 22 20 22 23 22 25 17 14 14 12
5 4 5 7 7 7 8 7 8 7 7 9 10 10 11 13 15 22 26 14 13 13 14 14 14 33 38 37 34 18 20 24 26 21 18 15 15 15 13 12 13 13 15
5 5 6 7 6 6 7 7 7 8 8 9 10 9 9 10 16 17 25 24 24 14 15 13 17 33 33 33 26 35 34 26 15 15 15 15 13 14 12 12 14 14 15
4 4 5 6 7 7 7 7 5 7 7 8 8 8 9 8 10 20 24 25 23 16 12 22 29 29 28 21 30 32 25 14 14 14 14 16 14 15 16 15 14 16 17
4 4 5 6 7 6 5 5 5 6 7 8 8 9 9 9 10 11 11 12 17 15 19 14 19 21 22 21 17 18 15 15 15 14 15 15 16 17 15 12 13 12 10
3 4 4 3 4 4 4 5 5 6 8 8 8 9 9 10 11 21 19 13 13 16 16 11 11 12 13 13 13 15 15 15 16 15 16 16 17 16 19 13 12 11 12
3 2 3 3 3 4 4 5 5 10 13 12 14 12 9 16 22 24 23 24 23 24 10 10 11 12 13 14 13 14 14 17 16 17 15 15 16 17 17 20 11 11 12
2 1 2 2 3 4 4 5 7 8 11 11 16 17 17 19 21 23 23 23 19 17 8 10 11 12 12 13 13 13 14 14 17 15 16 16 16 16 21 17 19 10 11
0 2 2 2 3 3 4 4 4 5 8 9 13 16 18 21 22 22 22 16 10 10 9 10 10 11 11 12 13 13 14 15 14 15 16 16 16 16 17 19 17 21 11
0 1 2 2 2 3 3 4 4 5 6 7 8 10 12 20 21 20 17 8 9 10 9 10 10 10 11 12 12 13 15 14 16 15 15 15 16 16 18 17 19 24 26
2 2 1 1 1 2 3 3 4 5 6 7 7 8 9 10 10 10 9 9 9 9 10 10 10 10 11 11 12 13 13 14 15 14 15 15 16 16 17 19 18 19 19
1 1 1 1 1 2 3 3 4 5 6 7 8 8 18 10 9 9 9 9 9 10 10 10 10 10 10 11 12 13 14 14 14 14 14 15 16 17 17 16 17 19 18
0 0 1 2 2 3 3 4 4 5 6 7 9 10 18 7 8 9 10 10 10 10 9 10 10 10 10 11 12 13 14 15 14 14 15 16 16 17 17 17 18 17 17
1 1 2 2 3 3 4 4 4 5 6 7 8 8 8 8 9 9 10 10 9 9 9 9 10 10 10 11 11 12 13 14 14 15 16 17 17 16 16 17 18 18 17
1 2 3 3 3 4 5 5 5 6 7 8 8 8 8 9 10 11 10 10 10 10 10 10 10 14 12 12 12 12 12 13 13 15 21 17 17 17 16 16 17 20 17
2 3 3 4 5 5 5 6 6 7 7 8 8 8 9 10 10 11 10 9 9 10 12 12 11 15 16 18 19 22 21 22 20 23 16 18 19 20 17 15 18 18 19
3 4 5 4 5 5 6 7 7 7 8 8 8 9 9 10 10 10 10 10 10 10 14 11 14 20 21 17 19 21 23 24 22 25 18 16 15 15 15 17 21 15 18
Wind_Direction
43 39 38 33 28 27 25 19 11 9 7 5 0 352 351 351 352 347 342 344 342 338 331 327 318 313 297 280 271 263 257 258 273 273 261 259 256 234 234 232 233 236 241
37 39 34 27 24 26 21 16 13 8 5 1 357 355 354 354 353 350 347 345 336 332 324 316 312 320 316 309 298 279 270 268 266 281 276 265 256 252 246 243 232 234 236
36 36 34 24 16 17 16 11 7 5 5 0 0 0 358 352 347 355 343 337 331 325 325 323 318 317 312 315 314 306 304 295 280 275 279 279 267 261 246 251 252 242 238
36 39 37 27 15 11 8 8 5 3 3 1 359 0 357 351 356 350 342 336 330 325 320 318 318 313 320 326 312 308 308 305 300 294 289 281 274 272 254 242 257 229 254
42 35 25 27 13 14 10 5 8 2 3 2 357 358 356 355 7 348 343 336 330 324 322 320 316 317 305 298 317 316 312 310 306 301 291 287 280 250 218 234 246 258 244
32 33 27 14 16 16 7 0 6 5 8 360 5 4 360 359 355 352 350 334 333 331 330 328 325 317 316 310 300 297 300 307 301 299 297 291 285 287 230 245 246 243 263
45 23 21 18 13 11 2 4 8 3 5 11 10 6 4 1 356 350 348 342 340 337 331 325 324 320 315 315 309 303 301 295 284 292 291 289 297 309 294 265 249 239 247
51 38 17 4 18 2 8 7 8 6 10 7 7 6 1 3 358 359 359 354 347 339 334 329 321 321 317 318 317 309 304 298 295 288 284 290 290 303 303 301 290 248 251
41 35 6 359 12 359 6 5 6 2 5 4 0 1 2 2 3 2 358 350 338 331 328 329 324 319 322 323 313 310 304 299 294 290 290 290 287 286 285 295 287 270 268
33 11 344 360 356 4 1 356 353 356 2 354 358 7 2 360 359 357 352 339 333 332 335 331 332 331 321 318 309 303 302 301 297 291 287 285 287 287 283 265 274 271 257
9 332 358 5 353 358 350 354 354 358 360 5 5 5 4 355 354 346 349 343 335 336 330 333 331 324 324 329 327 321 312 306 293 289 284 283 286 286 284 272 258 256 261
3 3 2 357 350 350 353 358 358 3 4 5 2 355 357 349 347 336 347 345 342 336 335 328 324 327 331 332 335 332 333 324 325 297 281 282 285 285 282 276 265 248 252
9 360 0 359 358 354 352 355 353 6 2 358 353 348 343 349 343 339 343 343 341 338 325 328 327 331 336 336 339 339 338 335 329 324 319 316 295 290 288 279 269 258 257
15 14 11 6 354 354 339 352 1 0 357 353 347 344 340 345 341 344 341 339 341 337 337 325 329 336 340 338 340 341 339 334 328 322 320 311 311 312 286 282 280 271 254
33 28 16 352 343 337 352 354 357 7 351 349 348 340 338 343 334 343 343 341 343 333 339 326 333 343 341 340 340 338 334 331 329 329 324 324 318 316 308 283 275 271 255
51 36 20 342 346 350 341 340 351 358 358 359 353 349 345 337 336 340 342 341 341 343 337 337 337 341 338 332 332 332 328 327 325 322 322 322 320 320 317 307 269 260 259
52 12 357 352 358 352 353 347 339 340 349 357 357 350 346 336 342 340 341 343 338 349 345 342 337 336 331 326 323 325 323 321 319 322 323 323 323 321 324 318 307 270 263
193 59 15 14 356 353 346 345 341 338 334 333 344 341 340 336 340 342 342 343 338 348 348 337 330 328 324 323 321 324 322 321 323 324 322 325 322 323 325 322 317 310 269
238 55 11 11 13 337 336 340 335 333 328 320 324 329 337 326 333 338 344 343 331 335 335 327 325 323 320 321 320 321 321 320 319 322 321 322 323 323 323 320 315 315 308
137 91 44 9 347 342 339 340 339 336 325 323 321 322 324 315 329 328 331 327 324 323 322 320 321 320 316 317 319 319 319 321 321 321 319 318 321 316 321 319 317 314 315
145 131 27 270 346 342 344 338 329 319 314 308 306 311 314 336 312 312 316 317 317 317 316 317 317 316 314 315 315 317 316 316 317 318 315 316 320 314 322 317 314 312 310
141 323 319 331 333 325 323 308 304 301 298 304 307 308 318 313 308 309 308 309 311 307 306 307 307 307 308 308 310 311 311 311 313 317 313 310 314 315 320 319 317 315 311
190 277 296 293 294 299 286 285 291 293 300 299 296 299 307 308 307 304 305 305 303 302 302 300 298 296 297 297 297 298 299 301 306 309 306 307 306 319 319 317 317 317 315
231 267 277 284 279 285 282 289 294 285 284 289 295 298 302 302 300 300 297 299 301 300 299 296 291 290 291 291 294 294 292 290 299 299 301 299 307 317 317 316 316 316 312
241 261 267 272 276 282 288 286 285 286 286 288 292 295 296 296 295 294 297 296 294 294 295 297 293 293 292 295 292 291 290 295 297 296 296 308 303 313 315 315 318 317 315
246 254 261 267 270 273 274 278 279 282 285 291 292 292 293 295 292 291 291 289 288 289 295 291 290 292 295 295 291 291 297 301 303 305 307 305 310 314 315 316 320 319 320